DateTimeUTC,F1_A11,F1_S11,BsB_S11,BsG_S11,BsR_S11,BbsB_S11,BbsG_S11,BbsR_S11,BaB_A11,BaG_A11,BaR_A11,Tu_S11,T_S11,Uu_S11,U_S11,P_S11,T1_A11
2021-07-15T03:00:00Z,00000200,20000000,,,,,,,-000.12,-000.15,-000.37,18.3,25.0,08.9,05.9,0660.0,31.0
2021-07-15T03:01:00Z,00000200,20000000,,,,,,,0000.00,-000.20,0000.08,18.3,25.0,08.9,05.9,0659.9,31.0
2021-07-15T03:02:00Z,00000200,20000000,,,,,,,0000.01,0000.16,0000.06,18.3,25.0,08.9,05.9,0659.9,31.0
2021-07-15T03:03:00Z,00000200,60000000,,,,,,,-000.23,0000.18,0000.15,18.3,25.0,08.9,05.9,0659.9,31.0
2021-07-15T03:04:00Z,00000200,40000000,0000.46,0000.26,-000.07,-000.20,-000.49,-000.13,0000.48,0000.59,0000.17,18.3,24.8,08.9,06.0,0660.8,31.0
2021-07-15T03:05:00Z,00000200,00000000,0000.18,0000.24,0000.10,0000.09,0000.09,-000.22,-000.07,-000.59,-000.34,18.4,24.8,08.9,06.0,0660.9,31.0
2021-07-15T03:06:00Z,00000200,00000000,-000.27,0000.31,-000.11,-000.01,-000.06,-000.24,0000.14,0000.09,0000.17,18.4,24.7,08.9,06.0,0660.9,31.0
2021-07-15T03:07:00Z,00000200,00000000,0000.13,0000.20,0000.28,0000.16,-000.10,0000.34,-000.04,0000.03,0000.03,18.4,24.8,09.0,06.1,0661.0,31.0
2021-07-15T03:08:00Z,00000200,00000000,0000.48,-000.31,-000.11,-000.11,0000.17,0000.02,-000.06,0000.18,0000.07,18.5,24.8,09.0,06.1,0660.9,31.0
2021-07-15T03:09:00Z,00000200,00000000,-000.16,-000.03,-000.18,-000.34,0000.08,0000.29,0000.14,-000.01,-000.21,18.5,24.8,09.0,06.1,0661.0,31.0
2021-07-15T03:10:00Z,00000200,00000000,0000.25,0000.13,0000.35,-000.10,-000.14,0000.13,-000.23,-000.11,0000.31,18.6,24.8,08.9,06.1,0661.0,31.0
2021-07-15T03:11:00Z,00000200,00000000,0000.66,0000.23,0000.32,-000.24,-000.21,0000.18,0000.09,-000.12,-000.25,18.6,24.8,08.9,06.1,0661.0,31.0
2021-07-15T03:12:00Z,00000200,00000000,-000.27,-000.17,-000.03,-000.71,0000.23,-000.08,0000.16,-000.05,0000.08,18.5,24.8,08.8,06.0,0661.0,31.0
2021-07-15T03:13:00Z,00000200,00000000,0000.08,-000.33,-000.28,0000.11,0000.04,-000.11,-000.19,0000.19,0000.02,18.5,24.8,08.8,06.0,0661.0,31.0
2021-07-15T03:14:00Z,00000200,00000000,0000.39,0000.03,-000.22,0000.31,-000.29,-000.02,-000.05,-000.57,-000.07,18.5,24.8,08.8,06.0,0661.0,31.0
2021-07-15T03:15:00Z,00000200,00000000,0000.06,-000.03,0000.27,-000.02,-000.23,-000.17,-000.22,0000.37,0000.20,18.5,24.8,08.9,06.1,0661.0,31.0
2021-07-15T03:16:00Z,00000200,00000000,-000.38,0000.20,-000.23,-000.44,-000.14,-000.18,-000.16,-000.15,-000.19,18.5,24.8,08.8,06.0,0661.0,31.0
2021-07-15T03:17:00Z,00000200,00000000,-000.04,-000.12,0000.15,-000.61,-000.13,-000.07,0000.34,0000.09,-000.44,18.4,24.7,08.8,06.0,0661.0,31.0
2021-07-15T03:18:00Z,00000200,00000000,0000.70,-000.08,0000.11,-000.02,0000.07,0000.02,-000.17,-000.18,0000.29,18.4,24.7,08.9,06.0,0660.9,31.0
2021-07-15T03:19:00Z,00000200,00000000,0000.13,0000.06,-000.28,-000.00,0000.02,0000.05,-000.24,-000.02,-000.08,18.4,24.7,08.8,06.0,0660.9,31.1
2021-07-15T03:20:00Z,00000200,00000000,-000.30,0000.15,0000.25,0000.28,-000.02,0000.06,0000.29,0000.04,0000.01,18.4,24.7,08.8,06.0,0660.9,31.0
2021-07-15T03:21:00Z,00000200,00000000,0000.93,0000.08,0000.09,-000.02,0000.25,0000.17,-000.09,-000.02,-000.03,18.4,24.7,08.8,06.0,0660.9,31.0
2021-07-15T03:22:00Z,00000200,00000000,0000.69,0000.24,-000.20,-000.26,-000.01,-000.15,0000.14,0000.11,0000.03,18.5,24.7,08.8,06.0,0661.0,31.0
2021-07-15T03:23:00Z,00000200,00000000,0000.06,0000.13,0000.10,0000.15,-000.09,0000.31,-000.04,-000.04,0000.11,18.5,24.8,08.7,05.9,0661.0,31.0
2021-07-15T03:24:00Z,00000200,00000000,0000.04,0000.10,-000.16,0000.29,-000.04,0000.12,0000.16,0000.15,-000.18,18.6,24.8,08.7,06.0,0661.0,31.0
2021-07-15T03:25:00Z,00000200,00000000,-000.52,0000.28,-000.09,0000.17,-000.11,-000.12,-000.05,-000.08,0000.18,18.6,24.8,08.6,05.9,0661.0,31.0
2021-07-15T03:26:00Z,00000200,00000000,-000.20,0000.37,-000.29,-000.26,0000.36,-000.06,-000.11,-000.16,-000.08,18.6,24.8,08.6,05.9,0661.0,31.0
2021-07-15T03:27:00Z,00000200,00000000,0000.76,-000.02,-000.10,-000.11,0000.05,-000.16,-000.05,-000.26,-000.14,18.6,24.8,08.7,05.9,0661.0,31.0
2021-07-15T03:28:00Z,00000200,00000000,0000.06,0000.28,-000.05,-000.08,-000.02,-000.14,-000.14,0000.28,0000.16,18.6,24.8,08.6,05.9,0661.0,31.0
2021-07-15T03:29:00Z,00000200,00000000,0000.34,-000.12,0000.08,-000.07,-000.03,0000.15,0000.08,-000.23,-000.18,18.5,24.8,08.6,05.9,0661.0,31.0
2021-07-15T03:30:00Z,00000200,00000000,-000.07,0000.26,-000.08,0000.56,0000.00,-000.21,-000.40,-000.05,0000.03,18.5,24.8,08.6,05.9,0661.0,31.0
2021-07-15T03:31:00Z,00000200,00000000,0000.74,-000.02,0000.17,0000.24,-000.34,0000.10,0000.13,0000.26,-000.28,18.5,24.7,08.6,05.9,0661.0,31.0
2021-07-15T03:32:00Z,00000200,00000000,-000.02,0000.26,-000.15,-000.28,-000.23,-000.11,-000.02,0000.17,0000.28,18.5,24.7,08.6,05.9,0661.0,31.0
2021-07-15T03:33:00Z,00000200,00000000,-000.46,0000.26,-000.19,0000.12,0000.06,-000.52,0000.11,-000.61,-000.24,18.4,24.7,08.7,05.9,0661.0,31.0
2021-07-15T03:34:00Z,00000200,00000000,-000.37,0000.50,0000.03,-000.13,-000.04,0000.05,0000.15,0000.31,0000.15,18.4,24.7,08.6,05.9,0661.0,31.0
2021-07-15T03:35:00Z,00000200,00000000,0000.09,-000.04,-000.21,-000.08,0000.04,-000.18,-000.12,0000.11,0000.09,18.4,24.7,08.6,05.8,0661.0,31.0
2021-07-15T03:36:00Z,00000200,00000000,0000.05,0000.28,-000.24,-000.40,-000.08,0000.22,0000.19,-000.06,-000.24,18.4,24.7,08.7,05.9,0661.0,31.0
2021-07-15T03:37:00Z,00000200,00000000,0000.61,0000.07,0000.06,0000.14,-000.15,-000.03,0000.31,-000.01,0000.51,18.5,24.7,08.6,05.9,0661.1,31.0
2021-07-15T03:38:00Z,00000200,00000000,0000.14,0000.24,0000.16,-000.20,-000.03,0000.12,-000.14,0000.29,0000.04,18.6,24.8,08.6,05.9,0661.1,31.0
2021-07-15T03:39:00Z,00000200,00000000,0000.39,0000.34,-000.24,0000.51,-000.04,0000.06,0000.22,0000.14,-000.19,18.6,24.8,08.7,05.9,0661.1,31.0
2021-07-15T03:40:00Z,00000200,00000000,0000.42,0000.16,-000.14,-000.20,0000.10,-000.10,-000.47,-000.29,-000.10,18.6,24.8,08.6,05.9,0661.1,31.0
2021-07-15T03:41:00Z,00000200,00000000,0000.11,0000.22,-000.23,-000.08,-000.03,-000.03,-000.04,-000.10,0000.05,18.6,24.8,08.5,05.8,0661.1,31.0
2021-07-15T03:42:00Z,00000200,00000000,-000.09,-000.06,0000.12,-000.06,-000.25,0000.14,0000.33,0000.06,0000.08,18.6,24.8,08.5,05.8,0661.1,31.0
2021-07-15T03:43:00Z,00000200,00000000,-000.04,-000.01,0000.17,0000.32,0000.06,0000.14,-000.46,0000.00,-000.11,18.5,24.8,08.4,05.8,0661.1,31.0
2021-07-15T03:44:00Z,00000200,00000000,0000.69,0000.08,-000.01,-000.30,0000.01,0000.01,-000.05,-000.13,-000.11,18.5,24.7,08.6,05.8,0661.1,31.0
2021-07-15T03:45:00Z,00000200,00000000,-000.12,0000.13,-000.01,0000.40,0000.07,0000.06,-000.02,0000.06,0000.08,18.5,24.7,08.5,05.8,0661.1,31.0
2021-07-15T03:46:00Z,00000200,00000000,0000.81,0000.08,-000.13,0000.61,-000.13,-000.56,-000.10,0000.03,-000.09,18.5,24.7,08.5,05.8,0661.1,31.0
2021-07-15T03:47:00Z,00000200,00000000,-000.49,0000.18,-000.23,-000.11,-000.27,-000.02,0000.41,-000.03,-000.19,18.5,24.7,08.6,05.8,0661.1,31.0
2021-07-15T03:48:00Z,00000200,00000000,0000.55,0000.12,0000.14,0000.59,0000.16,-000.13,-000.25,-000.12,0000.04,18.4,24.7,08.4,05.8,0661.1,31.0
2021-07-15T03:49:00Z,00000200,00000000,0000.20,0000.39,0000.14,-000.20,-000.08,-000.07,-000.01,-000.11,0000.07,18.4,24.7,08.5,05.8,0661.1,31.0
2021-07-15T03:50:00Z,00000200,00000000,0000.71,0000.30,-000.28,0000.50,-000.11,0000.02,0000.01,-000.01,0000.06,18.4,24.7,08.4,05.7,0661.1,31.0
2021-07-15T03:51:00Z,00000200,00000000,0000.60,0000.18,0000.18,-000.08,-000.33,-000.21,0000.25,0000.06,0000.15,18.4,24.7,08.4,05.7,0661.1,31.0
2021-07-15T03:52:00Z,00000200,00000000,-000.19,-000.06,0000.04,-000.18,0000.15,0000.52,0000.01,0000.19,0000.05,18.4,24.7,08.3,05.7,0661.1,31.0
2021-07-15T03:53:00Z,00000200,00000000,0000.12,-000.01,0000.11,-000.20,0000.06,-000.27,-000.18,-000.12,-000.11,18.5,24.7,08.3,05.7,0661.1,31.0
2021-07-15T03:54:00Z,00000200,00000000,0000.31,0000.43,0000.06,0000.26,0000.14,0000.08,0000.23,0000.29,0000.08,18.6,24.7,08.4,05.7,0661.1,31.0
2021-07-15T03:55:00Z,00000200,00000000,-000.05,0000.31,0000.21,0000.02,-000.30,0000.02,0000.05,0000.02,-000.15,18.6,24.8,08.3,05.7,0661.1,31.0
2021-07-15T03:56:00Z,00000200,00000000,0000.38,0000.05,-000.14,-000.56,0000.19,-000.14,-000.16,-000.25,-000.02,18.6,24.8,08.3,05.7,0661.1,31.0
2021-07-15T03:57:00Z,00000200,40000000,,,,,,,-000.04,-000.08,0000.36,18.7,24.8,08.0,05.5,0661.1,31.0
2021-07-15T03:58:00Z,00000200,60000000,,,,,,,-000.32,-000.01,-000.53,18.4,24.9,08.4,05.6,0660.2,31.0
2021-07-15T03:59:00Z,00000200,20000000,,,,,,,-000.00,-000.35,-000.15,18.3,25.0,08.3,05.5,0660.2,31.0
